Weather in Sorø

Denmark     55°26′32″N   11°33′56″E
В апреле 2022 года жителям России запретили посещать сайт meteo.paraplan.net по решению Генеральной прокуратуры. Аудитория сайта уменьшилась в 10 раз. Владельцы сайта не видят смысла в поддержке погодного сервера в таких условиях. Сайт будет закрыт в октябре.
temp.,
°C
wind,
m/s
gust,
m/s
humid.,
%
clouds,
%
prec.,
mm/h
press.,
hPa
HPBL,
m
25 september, sun
sun2523:00+13w238498 0.1 101371
02:00+13w238487 0.2 101376
05:00+12wnw228798 0.0 101258
08:00+12wnw1192100 0.0 101260
11:00+12wnw1295100 1.7 1012141
14:00+13w238498 2.1 1011404
17:00+14wsw346975 0.4 1009564
20:00+12ssw368378 0.4 1008159
26 september, mon
mon2623:00+11w4881100 0.0 1006196
02:00+10wsw4778100 0.0 1004226
05:00+11ssw4881100 0.1 1002311
08:00+11ssw61189100 0.8 999715
11:00+11ssw71281100 1.0 998807
14:00+11ssw81285100 1.5 998893
17:00+11ssw81286100 0.3 996963
20:00+11ssw71188100 0.8 996847
27 september, tue
tue2723:00+11s61088100 0.3 995749
02:00+11s5989100 1.1 994644
05:00+10s51092100 1.1 993613
08:00+10s3695100 4.6 992370
11:00+10wsw1295100 5.0 993213
14:00+10wnw2487100 8.6 994275
17:00+11w237597 0.2 995624
20:00+9se118695 0.4 99611
28 september, wed
wed2823:00+8ese228871 0.0 99723
02:00+8ese2288100 0.0 99627
05:00+8e3488100 0.0 99677
08:00+8se2490100 0.0 99573
11:00+12s3370100 0.0 996718
14:00+13sse3359100 0.1 9951319
17:00+13se2263100 0.1 995349
20:00+9sse1181100 0.4 99622
29 september, thu
thu2923:00+9sse1184100 0.0 99611
02:00+9s1184100 0.1 99616
05:00+9wnw2384100 0.1 99665
08:00+9s2381100 0.2 99692
11:00+11sw5773100 0.4 997814
14:00+11sw7870100 0.4 9971011
17:00+11wsw5986100 2.0 997600
20:00+10w71186100 2.5 999780